Tracking 17857 objects as of 30-September-2016
HD Live streaming from Space Station
objects crossing your sky now

CZ-2D DEB

Track CZ-2D DEB now!
10-day predictions


NORAD ID: 35272
Int'l Code: 2005-024L
Perigee: 516.3 km
Apogee: 536.4 km
Inclination: 97.6 °
Period: 95.0 minutes
Semi major axis: 6897 km
RCS: 0.0215 m2 (small)
Launch date: July 5, 2005
Source: People's Republic of China (PRC)
Launch site: Jiuquan Satellite Launch Center, China (JSC)

Note: This is SATELLITE DEBRIS
Your satellite tracking list
Your tracking list is empty





NASA's NSSDC Master Catalog

Two Line Element Set (TLE):
1 35272U 05024L   16273.35820782  .00001533  00000-0  84166-4 0  9995
2 35272  97.5971 309.9236 0014622  43.4493  20.3980 15.15584406598400
Source of the keplerian elements: AFSPC

N2YO: 935